Regional Weather Roundup
Issued by NWS

Home | Current Version | Previous Version | Graphics & Text | Print | Product List | Glossary On
Versions: 1 2 3 4 5 6 7 8 9 10 11 12 13 14 15 16 17 18 19 20 21 22 23 24 25 26 27 28 29 30 31 32 33 34 35 36 37 38 39 40 41 42 43 44 45 46 47 48 49 50
000
ASUS43 KDMX 282004
RWRIA

WEATHER ROUNDUP FOR IOWA
NATIONAL WEATHER SERVICE DES MOINES IA
  ISSUED BY NWS QUAD CITIES IA IL
200 PM CST SAT FEB 28 2015

NOTE: "FAIR" INDICATES FEW OR NO CLOUDS BELOW 12,000 FEET WITH NO
SIGNIFICANT WEATHER AND/OR OBSTRUCTIONS TO VISIBILITY.

* - THESE STATIONS ARE NOT NWS STATIONS...THUS NOT UNDER NWS
QUALITY CONTROL.  THEY ALSO DO NOT REPORT WEATHER SUCH
AS PRECIPITATION OR FOG.

IAZ001>003-012>014-020>022-031>034-043>046-282100-
   NORTHWEST IOWA

CITY           SKY/WX    TMP DP  RH WIND       PRES   REMARKS
CARROLL *      CLOUDY    21  10  63 S13       30.39F WCI   9
CHEROKEE *     PTCLDY    20  11  66 S18G24    30.36F WCI   5
DENNISON *     PTSUNNY   21  12  68 S13G21    30.35F WCI   9
LE MARS *      CLOUDY    23  14  68 S15G23    30.33F WCI  10
ORANGE CITY *  CLOUDY    23  12  63 S15       30.31F WCI  10
SHELDON *      CLOUDY    19  10  68 S18       30.31F WCI   4
SIOUX CITY     CLOUDY    25  14  63 S15       30.35F WCI  13
SPENCER        SUNNY     21   9  59 S20       30.34F WCI   6
STORM LAKE *   CLOUDY    19   9  63 S16       30.35F WCI   5
$$

IAZ055>058-069>071-079>083-090>094-282100-
   SOUTHWEST IOWA

CITY           SKY/WX    TMP DP  RH WIND       PRES   REMARKS
ATLANTIC *     PTSUNNY   21  14  73 S10       30.39F HAZE    WCI  10
AUDUBON *      PTSUNNY   23  10  58 S9        30.38F WCI  13
CLARINDA *     MIX PCPN  23  18  80 S8        30.44F WCI  14
COUNCIL BLFS * LGT SNOW  21  14  73 S10       30.37F WCI  10
CRESTON *      MIX PCPN  21  14  73 S7        30.40F WCI  13
HARLAN *       PTSUNNY   21  16  79 S14       30.41F WCI   8
LAMONI         CLOUDY    22  13  68 SE9       30.41F WCI  12
RED OAK *      PTSUNNY   23  18  80 S9        30.41F HAZE    WCI  13
SHENANDOAH *   CLOUDY    23  18  80 S9        30.42F HAZE    WCI  13
$$

IAZ047>049-059>061-072>074-084-282100-
   CENTRAL IOWA

CITY           SKY/WX    TMP DP  RH WIND       PRES   REMARKS
AMES           MOSUNNY   18   7  62 SE10      30.45F WCI   6
ANKENY *       PTSUNNY   21   9  58 SE9       30.45F WCI  11
BOONE *        PTSUNNY   19  10  68 SE13      30.41F WCI   7
CHARITON *     PTSUNNY   23  14  68 S8        30.44F WCI  14
DES MOINES     CLOUDY    23   9  55 S8        30.44F WCI  14
GRINNELL *     MOCLDY    19   9  64 E7        30.48F WCI  10
KNOXVILLE *    PTSUNNY   23   9  54 S8        30.44F WCI  14
MARSHALLTOWN   MOSUNNY   15   5  64 S13       30.47F WCI   1
NEWTON *       PTSUNNY   18   7  62 SE6       30.47F WCI   9
PELLA *        PTSUNNY   26  13  58 S8        30.47F WCI  17
PERRY *          N/A     23  13  66 SE12      30.43F WCI  11
$$

IAZ004>006-015-016-023>025-035-036-282100-
   NORTH CENTRAL IOWA

CITY           SKY/WX    TMP DP  RH WIND       PRES   REMARKS
ALGONA *       CLOUDY    19   7  58 S16       30.40F WCI   5
CLARION *      PTSUNNY   18   9  68 S14G20    30.43F WCI   4
ESTHERVILLE    MOSUNNY   18   8  65 S20       30.35F WCI   2
FORT DODGE *   MOSUNNY   19   7  58 S10       30.42F WCI   8
MASON CITY     MOSUNNY   12   3  67 SE14      30.45F WCI  -3
FOREST CITY *  FAIR      18   5  57 SE14      30.41F WCI   4
WEBSTER CITY * MOSUNNY   19   7  58 S10       30.41F WCI   8
IOWA FALLS *   CLOUDY    17   6  61 SE13      30.47F HAZE    WCI   3
$$

IAZ007>011-017>019-026>030-037>042-050>054-066-282100-
   NORTHEAST IOWA

CITY           SKY/WX    TMP DP  RH WIND       PRES   REMARKS
CEDAR RAPIDS   MOSUNNY   15   4  61 E8        30.52F WCI   4
CHARLES CITY * SUNNY     12   1  62 SE9       30.49F WCI   0
CLINTON *      SUNNY     18   3  53 SE6       30.59F WCI   9
DECORAH *      SUNNY     14  -4  44 S9        30.49F WCI   2
DUBUQUE        SUNNY     13   2  61 S8        30.53F WCI   2
MONTICELLO *   SUNNY     14   0  52 SE10      30.55F WCI   1
OELWEIN *      SUNNY     12   1  62 SE9       30.51F WCI   0
WATERLOO       PTSUNNY   14   2  58 SE13      30.50F WCI   0
$$

IAZ064-065-067-068-078-282100-
   EAST CENTRAL IOWA

CITY           SKY/WX    TMP DP  RH WIND       PRES   REMARKS
DAVENPORT      SUNNY     18  -1  43 SE6       30.55F WCI  10
IOWA CITY      MOSUNNY   15   2  56 SE8       30.56F WCI   4
MT. PLEASANT * PTSUNNY   23   6  49 E8        30.52F WCI  13
MUSCATINE *    MOSUNNY   19   3  49 S7        30.57F WCI  10
QUAD CITIES    SUNNY     18   2  49 SE6       30.56F WCI  10
$$

IAZ062-063-075>077-085>089-095>099-282100-
   SOUTHEAST IOWA

CITY           SKY/WX    TMP DP  RH WIND       PRES   REMARKS
BURLINGTON     CLOUDY    20   6  55 E7        30.53F WCI  11
FAIRFIELD *    MOSUNNY   21   5  49 E10       30.50F WCI  10
FORT MADISON * PTSUNNY   19   5  53 SE7       30.53F WCI  10
KEOKUK *       FLURRIES  21   9  58 E10       30.52F WCI  10
OSKALOOSA *    MOCLDY    22   8  55 S12       30.48F WCI  11
CENTERVILLE *  MIX PCPN  25  16  68 S10       30.46F WCI  15
OTTUMWA        CLOUDY    22   8  55 SE10      30.47F WCI  11
WASHINGTON *   CLOUDY    19  10  68 E10       30.52F WCI   8
$$

ABBREVIATIONS USED IN REMARKS
   TC - TEMPERATURES IN CELSIUS
  WCI - WIND CHILL INDEX
   HX - HEAT INDEX
  VSB - VISIBILITY
$$


USA.gov is the U.S. government's official web portal to all federal, state and local government web resources and services.